CZ-3B DEB, 40185

Orbit data source: Space-Track

CZ-3B DEB, 40185 is space debris in HEO originally from a launch on Mon, 19 Dec 2011 UTC launched from the Xichang Space Center, China (XSC). Debris objects in space refer to the collection of defunct objects orbiting the Earth. Examples of debris include non-operational satellites, rocket bodies, and fragments generated from explosions, collisions, or faulty payload assembly.

Loading next visibility...
Identifier
40185, 2011-077J
Orbit
HEO
Country
Flag of CNCN / PRC
Related business
Manufacturer
CALT
Mission
Spacecraft
Bus & Motor
Unknown
Mass
Unknown
Launch date (UTC)
2011-12-19 (14 years ago)
Launch vehicle
Unknown
Launch site
Xichang Space Center, China (XSC)
Object type
Payload
Rocket body
Debris
Shape & HBR
Unknown shape, 0.6 m
Radar Cross Section
Medium (>0.1 m² and <1 m²)

Expand to show TLE details & history
Last TLE update: 2 days ago

TLE from 2 days ago
0 CZ-3B DEB
1 40185U 11077J   26093.64275155  .00000610  00000-0  40789-2 0  9996
2 40185  25.0119 261.7714 7492413 223.0180  44.8765  1.92949994 83890
Epoch: 2026-04-03T15:25Z
TLE epoch observation values (Epoch: 2026-04-03T15:25:33.733Z)
Latitude
0.00001°
Longitude
-161.71129°
Altitude
20,022.971 km
Speed
3.946 km/s
True Right ascension
17h 26m 36s
True Declination
0° 00' 00"
Sunlit
Object was in daylight at epoch
Visualization orbit readout
Latitude
Unknown
Longitude
Unknown
Altitude
Unknown
Speed
Unknown
Apparent Right ascension
Unknown
Apparent Declination
Unknown
Sunlit
N/A
Visualization observer readout
Local Sidereal Time
01:04:19
Azimuth
Unknown
Elevation
Unknown
Doppler factor
Unknown
Orbital elements
Apogee altitude
41,303.76 km
Perigee altitude
457.198 km
Semi-major axis
27,258.616 km
Eccentricity
0.74924
Inclination
25.0119°
RAAN
261.7714°
Arg. of periapsis
223.018°
True anomaly
137.02747°
Mean anomaly
44.8765°
Eccentric anomaly
87.77242°
Mean motion
0.48227 °/min
Orbital period
746.47 mins
BSTAR
0.0040789
Loading maneuver chart data...
Computing Atmospheric mass density...
Loading historical data...
Loading historical data...
Loading historical data...
Loading historical data...
Loading historical data...
Loading historical data...
Loading historical data...

Documentation

Showing up to 5 results
|